STARLINK-33735, 63474

Orbit data source: Space-Track

STARLINK-33735, 63474 is a payload satellite owned by SpaceX/Seattle (US) in LEO that was launched on Sun, 06 Apr 2025 UTC via an FALCON 9 launch vehicle from the Air Force Eastern Test Range (AFETR). Payload-class satellites include a variety of spacecraft equipped with specific instruments for various scientific and technological missions. These include communications satellites like Starlink; space stations such as the ISS; scientific satellites like the Hubble; Earth observation satellites from companies like Planet Labs, Umbra, and HawkEye 360; GPS; miniature CubeSats for education and research; and military/defense satellites.

Loading next visibility...
Identifier
63474, 2025-070Q
Orbit
LEO
Country
Flag of USUS
Related business
Manufacturer
SpaceX/Seattle
Mission
Operational Commercial Communications
Bus & Motor
STARLINK V2MO, Unknown motor
Mass
575 kg wet, ~530 kg dry
Launch date (UTC)
2025-04-06 (1 year ago)
Launch vehicle
FALCON 9
Launch site
Air Force Eastern Test Range (AFETR)
Object type
Payload
Rocket body
Debris
Shape & HBR
Box + 2 Pan, 17.7 m
Radar Cross Section
36.964 m², Large (>1 m²)

Expand to show TLE details & history
Last TLE update: 1 day ago

TLE from 1 day ago
0 STARLINK-33735
1 63474U 25070Q   26169.02998448  .00022151  00000-0  81242-3 0  9997
2 63474  42.9953  52.9985 0001899 276.2627  83.8008 15.27564144 68320
Epoch: 2026-06-18T00:43Z
TLE epoch observation values (Epoch: 2026-06-18T00:43:10.659Z)
Latitude
-0.00001°
Longitude
135.9249°
Altitude
482.731 km
Speed
7.626 km/s
True Right ascension
03h 31m 59s
True Declination
0° 00' 00"
Sunlit
Object was in daylight at epoch
Visualization orbit readout
Latitude
Unknown
Longitude
Unknown
Altitude
Unknown
Speed
Unknown
Apparent Right ascension
Unknown
Apparent Declination
Unknown
Sunlit
N/A
Visualization observer readout
Local Sidereal Time
14:04:05
Azimuth
Unknown
Elevation
Unknown
Doppler factor
Unknown
Orbital elements
Apogee altitude
486.346 km
Perigee altitude
483.739 km
Semi-major axis
6,863.18 km
Eccentricity
0.00019
Inclination
42.9953°
RAAN
52.9985°
Arg. of periapsis
276.2627°
True anomaly
83.82243°
Mean anomaly
83.8008°
Eccentric anomaly
83.81162°
Mean motion
3.81729 °/min
Orbital period
94.31 mins
BSTAR
0.00081242
Loading maneuver chart data...
Computing Atmospheric mass density...
Loading historical data...
Loading historical data...
Loading historical data...
Loading historical data...
Loading historical data...
Loading historical data...
Loading historical data...

Documentation

Showing up to 5 results
|